Overview Statistics Trail Chart Weather Telemetry Raw packets
 

This is the latest recevied weather packets stored in our database for station/object HB9FHL-13. If no packets are shown the sender has not sent any weather packets the latest 10 day(s).

<< 32 33 34 35 36 37 38 >>
Time Temp. Humidity Pressure Rain* Wind** Luminosity Snow
1788493179 20.56° C - 1022.7 hPa 0 mm - - -
1788492878 21.11° C - 1025.3 hPa 0 mm - - -
1788492577 20.56° C - 1021.6 hPa 0 mm - - -
1788492277 21.11° C - 1025.7 hPa 0 mm - - -
1788491976 21.11° C - 1024.3 hPa 0 mm - - -
1788491676 21.67° C - 1024.9 hPa 0 mm - - -
1788491376 20.56° C - 1025.3 hPa 0 mm - - -
1788491075 20° C - 1024.1 hPa 0 mm - - -
1788490774 20.56° C - 1023.1 hPa 0 mm - - -
1788490506 21.11° C - 1026.7 hPa 0 mm - - -
1788490474 21.11° C - 1026.7 hPa 0 mm - - -
1788490174 20.56° C - 1025 hPa 0 mm - - -
1788489873 20.56° C - 1022.5 hPa 0 mm - - -
1788489672 20.56° C - 1023.4 hPa 0 mm - - -
1788489573 20.56° C - 1023.4 hPa 0 mm - - -
1788489272 20.56° C - 1024.6 hPa 0 mm - - -
1788488970 20° C - 1023.8 hPa 0 mm - - -
1788488669 21.11° C - 1025.7 hPa 0 mm - - -
1788488369 20.56° C - 1027.1 hPa 0 mm - - -
1788488116 20° C - 1024.4 hPa 0 mm - - -
1788488068 20° C - 1024.4 hPa 0 mm - - -
1788487768 20.56° C - 1026.5 hPa 0 mm - - -
1788487467 20.56° C - 1025.9 hPa 0 mm - - -
1788487205 21.11° C - 1022.5 hPa 0 mm - - -
1788487167 21.11° C - 1022.5 hPa 0 mm - - -

* Rain since midnight (hover to see other rain measurements)
** Current wind speed in m/s (hover to see current wind gust speed)